sat.trackr.live / text

‹ back to catalog

BEIDOU-3 M6 (C24)

NORAD 43582 · 2018-062B

PAYLOAD ACTIVE UNKNOWN

§ Identity

Operator
Country
PRC
Launch date
2018-07-29
Launch site
XICLF
Launch vehicle
Mass (kg)
RCS (m²)

Purposes: nav

External: N2YO · Heavens-Above · Gunter

§ Orbital elements

Epoch: 2026-09-13T00:45:38.094624Z

Period
773.25 min
Inclination
54.0825°
Eccentricity
0.0006493
Mean motion
1.86227960 rev/d
Perigee alt
21,510.2 km
Apogee alt
21,546.5 km
Semi-major
27,906.5 km
B*
0.0000e+0
RAAN
179.3081°
Arg perigee
29.0996°
Mean anomaly
330.9452°
Rev number
5,527

§ Raw data

BEIDOU-3 M6 (C24)1 43582U 18062B   26256.03169091  .00000005  00000+0  00000+0 0  99922 43582  54.0825 179.3081 0006493  29.0996 330.9452  1.86227960 55270

JSON: /api/v1/satellites/43582 · /tle

For live sub-satellite position, see the globe view (requires WebGL).

§ Visibility from observer

Set your observer location to see the next 7 days of passes ≥ 10°. The values pass through the URL so the page stays shareable.

No JS? Fill the form by hand. The geolocation button needs JavaScript.